Flag for Canada Weather past 2 weeks in Glace Bay, Nova Scotia, Canada

Now
68 °F

Low clouds.


Feels Like: 68 °F
Forecast: N/A
Wind: 10 mph from Southwest

Location: Sydney

Current Time: Jul 31, 2015 at 8:47:15 PM

Latest Report: Jul 31, 2015 at 8:00 PM


Visibility: 10 mi

Pressure: 29.68 "Hg

Humidity: 94%

Dew point: 66 °F

Location of Glace BayLocation

Historic Weather in Glace Bay — Graph

°F

Glace Bay temperature yesterday

Maximum temperature yesterday: 70 °F (at 4:00 PM)
Minimum temperature yesterday: 54 °F (at 5:00 AM)
Average temperature yesterday: 61 °F

Past Weeks' High & Low Weather Summary

 TemperatureHumidityPressure
High77 °F (Jul 18, 1:00 PM)100% (Jul 20, 2:00 AM)30.20 "Hg (Jul 20, 2:00 AM)
Low48 °F (Jul 17, 2:00 AM)36% (Jul 18, 1:00 PM)29.55 "Hg (Jul 23, 4:00 AM)
Average59 °F89%29.91 "Hg
* Reported Jul 16 8:00 PM — Jul 31 8:00 PM, Glace Bay, Weather by CustomWeather, © 2015

Note: Actual official high and low records may vary slightly from our data, if they occured in-between our weather recording intervals... More about our weather records

Advertising

Glace Bay weather history for previous 24 hours

 ConditionsComfort  
Time TempWeatherWind HumidityBarometerVisibility
8:00 PM
Fri, Jul 31
68 °FLow clouds.10 mph94%29.68 "Hg10 mi
7:00 PM72 °FScattered clouds.13 mph88%29.68 "Hg15 mi
6:00 PM72 °FMostly cloudy.12 mph88%29.69 "Hg10 mi
5:00 PM70 °FPartly sunny.15 mph88%29.70 "Hg10 mi
4:00 PM70 °FBroken clouds.12 mph88%29.71 "Hg15 mi
3:00 PM68 °FLight rain. Fog.12 mph94%29.73 "Hg4 mi
2:54 PM68 °FLight rain. Fog.9 mph94%29.73 "Hg4 mi
2:00 PM68 °FLight rain. Cloudy.12 mph94%29.75 "Hg10 mi
1:00 PM68 °FFog.7 mph88%29.77 "Hg6 mi
12:00 PM66 °FFog.14 mph94%29.78 "Hg2 mi
11:49 AM66 °FFog.14 mph94%29.78 "Hg2 mi
11:00 AM68 °FFog.13 mph88%29.79 "Hg4 mi
10:00 AM66 °FFog.13 mph94%29.80 "Hg4 mi
9:00 AM64 °FFog.8 mph94%29.81 "Hg1 mi
8:00 AM61 °FFog.7 mph100%29.83 "Hg1 mi
7:00 AM59 °FFog.6 mph100%29.81 "Hg1 mi
6:00 AM57 °FFog.7 mph100%29.82 "Hg1 mi
5:00 AM55 °FFog.5 mph100%29.83 "Hg2 mi
4:00 AM55 °FFog.3 mph100%29.84 "Hg1 mi
3:50 AM55 °FFog.2 mph100%29.84 "Hg1 mi
3:00 AM57 °FPartly cloudy.3 mph100%29.85 "Hg15 mi
1:00 AM55 °FPartly cloudy.2 mph100%29.87 "Hg15 mi
12:00 AM55 °FPassing clouds.5 mph100%29.87 "Hg15 mi
11:00 PM
Thu, Jul 30
54 °FPassing clouds.2 mph100%29.88 "Hg15 mi
10:00 PM57 °FPassing clouds.2 mph94%29.89 "Hg15 mi
9:00 PM57 °FPassing clouds.2 mph94%29.88 "Hg15 mi
8:00 PM63 °FPassing clouds.3 mph77%29.86 "Hg15 mi
Weather by CustomWeather, © 2015

See weather overviewHow to use our weather pages